ECHOSTAR 21

Satellite information

Favourite Embed

Satellite Type and Status

PAYLOADIN ORBIT

Key statistics

Satellite ECHOSTAR 21 at a glance.

Uptime

3110

Days in orbit

Revolutions

≈ 1.0

Per day

Orbit

GEO

Geostationary Orbit

Inclination

1.8

Latest

Satellite identification and parameters

Extended collection of information and parameters for ECHOSTAR 21.

Object identification

Identified? True

Debris? False

Object name: ECHOSTAR 21

International designator: 2017-032A

Object number (NORAD): 42749

Object ID (CCSDS): 42749

Country: UNITED STATES OF AMERICA (US)

Current information (Y/N): Y

RCS size: LARGE

Orbital parameters

Period: 1436.082 minutes

Inclination: 1.8364 deg

SMA: 42164.442 km

Apoapsis: 35796.633 km

Periapsis: 35775.982 km

RAAN: 343.68 deg

Eccentricy: 0.00024489

Argument of periapsis: 273.9143 deg

Mean anomaly: 242.5954 deg

Mean motion: 1.00272818 rev/day

Mean motion (dot): 0.00000073 rev/day2

B* drag term: 0.0 1/REarth

Two-line elements (TLE)

Creation date: Dec. 12, 2025, 10:14 a.m.

Reference frame: TEME

Reference center: EARTH

Epoch: Dec. 12, 2025, 3:15 a.m. UTC

TLE line 0: 0 ECHOSTAR 21

TLE line 1: 1 42749U 17032A 25346.13568637 .00000073 00000-0 00000-0 0 9998

TLE line 2: 2 42749 1.8364 343.6800 0002449 273.9143 242.5954 1.00272818 31220

Live tracking on map

Real-time ground track for satellite ECHOSTAR 21.

In-orbit conjunctions

There are no conjunctions computed for ECHOSTAR 21, at the moment. Check back to stay up to date, as we update our databases every day.

Go to all conjunctions

Associated space launch

Echostar 21, formerly known as TerreStar 2, is a geostationary communications satellite built by Space System/Loral company. Equipped with S-band transponders, satellite is tasked with providing mobile broadband services over Europe. The spacecraft, based on SSL’s 1300 bus, will be located at the 10.25° East orbital slot.

ECHOSTAR 21 was lifted into orbit during the mission ‘Proton-M Briz-M | Echostar 21’, on board a Proton-M Briz-M space rocket.

The launch took place on June 8, 2017, 3:45 a.m. from 81/24 (81P).

For more information about the launch, click the button.

Launch to space Proton-M Briz-M | Echostar 21
Proton-M Briz-M | Echostar 21

Agency: N/A

Status: Launch Successful

Launch date: June 8, 2017, 3:45 a.m. UTC

Rocket: Proton-M Briz-M

Launch pad: 81/24 (81P)

Location: Baikonur Cosmodrome, Republic of Kazakhstan

...

Latest news about this satellite

There are no fresh news available about this satellite. Check back as we update our databases every day.


Newsletter sign-up

Weekly statistics, charts and insights to help you stay on top of the space industry.